Satellite: HORYU-2 Catalog number: 38340 Epoch time: 14148.85823048 Element set: 864 Inclination: 098.2588 deg RA of node: 105.7310 deg Eccentricity: 0.0011248 Arg of perigee: 236.4968 deg Mean anomaly: 123.5167 deg Mean motion: 14.72492160 rev/day Decay rate: 1.064e-05 rev/day^2 Epoch rev: 10895 Checksum: 309
Satellite: RS-40 Catalog number: 38735 Epoch time: 14148.55797902 Element set: 580 Inclination: 082.4733 deg RA of node: 299.7789 deg Eccentricity: 0.0016115 Arg of perigee: 299.2269 deg Mean anomaly: 060.7201 deg Mean motion: 12.42559569 rev/day Decay rate: 2.4e-07 rev/day^2 Epoch rev: 8314 Checksum: 333
Satellite: PROITERES Catalog number: 38756 Epoch time: 14149.80695720 Element set: 873 Inclination: 098.2284 deg RA of node: 237.8000 deg Eccentricity: 0.0013779 Arg of perigee: 085.1838 deg Mean anomaly: 275.0943 deg Mean motion: 14.74949006 rev/day Decay rate: 3.59e-06 rev/day^2 Epoch rev: 9247 Checksum: 338
Satellite: BEESAT-3 Catalog number: 39134 Epoch time: 14149.58084826 Element set: 599 Inclination: 064.8755 deg RA of node: 197.4262 deg Eccentricity: 0.0027412 Arg of perigee: 311.8865 deg Mean anomaly: 048.0417 deg Mean motion: 15.05129737 rev/day Decay rate: 2.669e-05 rev/day^2 Epoch rev: 6086 Checksum: 336
Satellite: BEESAT-2 Catalog number: 39136 Epoch time: 14149.70385016 Element set: 584 Inclination: 064.8751 deg RA of node: 197.4573 deg Eccentricity: 0.0027396 Arg of perigee: 311.6935 deg Mean anomaly: 048.2356 deg Mean motion: 15.04539487 rev/day Decay rate: 2.152e-05 rev/day^2 Epoch rev: 6087 Checksum: 326
Satellite: LO-75 Catalog number: 39382 Epoch time: 14149.56953815 Element set: 250 Inclination: 040.4953 deg RA of node: 206.7729 deg Eccentricity: 0.0016963 Arg of perigee: 104.0154 deg Mean anomaly: 256.2533 deg Mean motion: 15.42726779 rev/day Decay rate: 4.1893e-04 rev/day^2 Epoch rev: 2918 Checksum: 332
Satellite: ZACUBE-1 Catalog number: 39417 Epoch time: 14149.14853161 Element set: 308 Inclination: 097.7754 deg RA of node: 220.4234 deg Eccentricity: 0.0061199 Arg of perigee: 305.8699 deg Mean anomaly: 053.6886 deg Mean motion: 14.78063988 rev/day Decay rate: 6.40e-06 rev/day^2 Epoch rev: 2788 Checksum: 341
Satellite: TRITON-1 Catalog number: 39427 Epoch time: 14149.40885804 Element set: 163 Inclination: 097.7644 deg RA of node: 216.8739 deg Eccentricity: 0.0117520 Arg of perigee: 310.8240 deg Mean anomaly: 048.2822 deg Mean motion: 14.65362839 rev/day Decay rate: 8.09e-06 rev/day^2 Epoch rev: 2764 Checksum: 318
Satellite: DELFIN3XT Catalog number: 39428 Epoch time: 14149.23653173 Element set: 166 Inclination: 097.7612 deg RA of node: 216.0134 deg Eccentricity: 0.0127823 Arg of perigee: 312.9677 deg Mean anomaly: 046.0838 deg Mean motion: 14.63248203 rev/day Decay rate: 1.333e-05 rev/day^2 Epoch rev: 2756 Checksum: 298
Satellite: GOMX-1 Catalog number: 39430 Epoch time: 14149.76234848 Element set: 514 Inclination: 097.7604 deg RA of node: 214.6953 deg Eccentricity: 0.0155868 Arg of perigee: 315.9973 deg Mean anomaly: 042.8888 deg Mean motion: 14.56801593 rev/day Decay rate: 6.64e-06 rev/day^2 Epoch rev: 2753 Checksum: 347
Satellite: MO-76 Catalog number: 39436 Epoch time: 14149.16219951 Element set: 220 Inclination: 097.7783 deg RA of node: 223.0742 deg Eccentricity: 0.0024900 Arg of perigee: 313.8566 deg Mean anomaly: 046.0204 deg Mean motion: 14.89822460 rev/day Decay rate: 9.273e-05 rev/day^2 Epoch rev: 2804 Checksum: 307
Satellite: LO-74 Catalog number: 39440 Epoch time: 14149.72317900 Element set: 161 Inclination: 097.7703 deg RA of node: 219.4687 deg Eccentricity: 0.0083017 Arg of perigee: 305.5324 deg Mean anomaly: 053.8148 deg Mean motion: 14.73018548 rev/day Decay rate: 9.35e-06 rev/day^2 Epoch rev: 2786 Checksum: 318
Satellite: PUCPSAT-1 Catalog number: 39442 Epoch time: 14149.85256279 Element set: 159 Inclination: 097.7814 deg RA of node: 223.4229 deg Eccentricity: 0.0033772 Arg of perigee: 307.2525 deg Mean anomaly: 052.5580 deg Mean motion: 14.86023839 rev/day Decay rate: 1.788e-05 rev/day^2 Epoch rev: 2690 Checksum: 326
Satellite: LITUANSAT Catalog number: 39569 Epoch time: 14149.64034990 Element set: 278 Inclination: 051.6422 deg RA of node: 183.6447 deg Eccentricity: 0.0009823 Arg of perigee: 359.6240 deg Mean anomaly: 086.4820 deg Mean motion: 15.74600422 rev/day Decay rate: 1.16658e-03 rev/day^2 Epoch rev: 1410 Checksum: 305
Satellite: SHINAISAT Catalog number: 39572 Epoch time: 14149.59031785 Element set: 127 Inclination: 065.0077 deg RA of node: 107.4339 deg Eccentricity: 0.0016385 Arg of perigee: 291.2594 deg Mean anomaly: 068.7330 deg Mean motion: 15.67972552 rev/day Decay rate: 3.6100e-04 rev/day^2 Epoch rev: 1419 Checksum: 308
Satellite: OPUSAT Catalog number: 39575 Epoch time: 14149.67167855 Element set: 154 Inclination: 065.0027 deg RA of node: 103.6550 deg Eccentricity: 0.0014110 Arg of perigee: 304.4871 deg Mean anomaly: 055.5480 deg Mean motion: 15.82910724 rev/day Decay rate: 1.61445e-03 rev/day^2 Epoch rev: 1427 Checksum: 284
Satellite: TEIKYOSAT Catalog number: 39576 Epoch time: 14149.66243056 Element set: 131 Inclination: 065.0084 deg RA of node: 106.2642 deg Eccentricity: 0.0015054 Arg of perigee: 306.6996 deg Mean anomaly: 053.3297 deg Mean motion: 15.71097252 rev/day Decay rate: 4.4265e-04 rev/day^2 Epoch rev: 1422 Checksum: 289
Satellite: IFT-1 Catalog number: 39577 Epoch time: 14149.42486513 Element set: 138 Inclination: 065.0059 deg RA of node: 105.6304 deg Eccentricity: 0.0014453 Arg of perigee: 308.2758 deg Mean anomaly: 051.7623 deg Mean motion: 15.77165674 rev/day Decay rate: 9.2366e-04 rev/day^2 Epoch rev: 1421 Checksum: 305
Satellite: CO-77 Catalog number: 39578 Epoch time: 14137.79435183 Element set: 185 Inclination: 064.9698 deg RA of node: 141.4483 deg Eccentricity: 0.0010610 Arg of perigee: 288.0688 deg Mean anomaly: 072.6747 deg Mean motion: 16.37966192 rev/day Decay rate: 4.930316e-02 rev/day^2 Epoch rev: 1246 Checksum: 359
Satellite: STARS-II Catalog number: 39579 Epoch time: 14116.06110564 Element set: 132 Inclination: 064.9886 deg RA of node: 219.0071 deg Eccentricity: 0.0013010 Arg of perigee: 293.8065 deg Mean anomaly: 069.6132 deg Mean motion: 16.44611049 rev/day Decay rate: 2.0186783e-01 rev/day^2 Epoch rev: 902 Checksum: 288
Satellite: SPROUT Catalog number: 39770 Epoch time: 14149.91137438 Element set: 20 Inclination: 097.8722 deg RA of node: 247.3486 deg Eccentricity: 0.0010648 Arg of perigee: 021.7372 deg Mean anomaly: 338.4492 deg Mean motion: 14.82570585 rev/day Decay rate: 1.040e-05 rev/day^2 Epoch rev: 83 Checksum: 295
/EX
participants (1)
-
Ray Hoad